Lid_Strength_Index
2 2 2 3 2 2 3 3 3 3 2 2 2 2 2 2 2 2 3 1 3 6 6 5 5 6 6 7 9 7 7 7 8 11 11 11 12 10 11 10 12 13 15 15 14 16 17 7 7 11 9 6 6 6
2 2 2 2 2 3 3 3 2 2 2 3 3 2 2 3 2 2 4 1 3 5 6 3 3 2 3 4 6 6 6 7 7 9 9 9 11 10 11 15 8 14 10 13 13 13 7 6 7 5 5 6 5 5
2 2 2 2 2 3 3 2 2 2 3 3 3 3 2 2 2 3 3 3 5 7 6 5 5 2 1 1 1 7 6 5 6 4 7 9 11 8 12 11 10 8 7 11 10 8 7 6 5 5 5 5 4 4
2 2 2 2 2 3 3 3 3 3 3 3 3 3 2 2 2 2 3 3 3 5 9 6 1 3 0 0 1 2 3 3 4 4 8 9 11 6 10 9 10 8 7 9 9 7 7 6 5 5 5 4 5 4
2 2 2 2 3 3 3 3 3 3 3 3 3 3 2 2 2 1 1 1 1 5 8 7 3 1 1 1 2 2 3 4 7 9 9 10 8 8 7 8 9 7 8 10 11 7 7 7 5 5 5 5 4 4
2 2 3 2 3 3 3 3 3 3 2 3 3 3 2 2 2 2 5 1 -0 1 6 10 3 3 2 2 3 4 4 4 6 8 9 7 6 8 11 10 7 6 6 5 7 5 6 5 5 4 4 4 4 4
3 2 2 2 2 3 3 3 3 3 2 2 2 2 2 1 1 3 5 2 0 1 6 9 7 3 2 2 3 5 4 4 6 8 9 9 8 8 10 11 7 6 5 5 5 6 7 6 6 4 3 3 3 4
3 3 2 2 2 3 3 2 2 2 2 1 1 1 1 1 1 2 0 1 1 4 5 9 9 6 3 6 7 4 6 7 8 8 9 8 7 8 12 7 6 5 5 5 4 4 4 4 3 4 4 4 5 5
3 3 3 2 2 2 2 1 1 1 0 1 1 1 2 2 4 3 0 1 1 4 8 8 9 11 4 6 5 6 7 10 7 10 9 8 10 11 8 7 6 5 6 5 4 4 4 5 5 5 5 5 6 7
3 3 3 2 1 1 1 1 1 1 1 1 2 4 7 4 1 1 4 6 7 7 7 8 5 8 5 6 8 8 7 10 12 10 7 10 10 6 5 5 5 4 4 4 5 6 6 6 6 6 6 6 7 9
3 3 3 2 2 1 1 1 1 1 2 2 5 7 4 2 4 6 9 9 8 9 7 7 6 8 4 8 9 7 10 9 13 11 11 11 11 7 5 5 4 4 4 4 4 4 5 5 6 6 6 8 9 10
3 3 3 2 2 2 2 2 1 2 4 3 4 3 4 7 8 9 10 8 9 10 6 7 7 6 5 4 7 8 10 10 13 8 11 12 9 6 5 5 4 4 4 4 4 5 5 5 5 7 8 9 9 10
3 3 2 2 2 2 2 2 2 2 3 4 5 7 7 8 11 11 13 10 10 6 6 6 8 6 6 6 7 9 12 12 7 12 12 10 7 6 5 4 4 3 3 4 5 5 5 6 7 8 9 9 10 11
3 3 2 2 2 2 2 2 2 3 4 7 9 11 10 11 9 8 9 8 6 6 6 6 8 8 8 9 9 12 9 9 13 13 13 9 7 5 4 3 4 4 4 5 6 6 6 8 8 9 9 9 11 12
3 3 3 2 2 2 2 1 2 3 5 8 8 11 9 6 6 6 5 5 5 5 6 7 8 8 9 10 9 9 12 13 13 14 9 7 5 4 4 4 5 5 5 5 5 7 9 8 9 9 10 10 11 12
2 3 3 2 2 2 2 2 3 3 6 7 8 8 6 7 7 6 6 7 4 5 6 6 9 11 11 10 11 12 13 15 12 9 6 5 4 4 4 5 5 5 5 5 6 8 8 8 9 10 10 11 12 12
3 4 2 2 2 2 2 4 4 7 8 8 8 5 6 6 7 7 5 6 4 6 9 8 12 11 8 11 11 9 11 10 7 6 4 4 4 4 5 5 5 5 5 5 6 6 6 8 9 10 11 11 12 12
4 2 2 2 2 3 4 4 6 8 9 7 7 6 5 4 5 5 5 4 5 6 7 9 7 10 11 12 12 8 7 6 5 5 4 4 4 4 5 5 5 5 5 5 6 6 6 7 8 9 10 11 12 13
3 2 2 2 3 5 7 6 6 9 7 5 5 4 4 4 3 3 4 4 4 4 6 7 10 10 9 8 7 6 6 5 5 5 4 4 4 5 5 5 5 5 6 6 6 7 6 6 6 7 7 8 11 13
3 2 2 3 2 6 7 7 5 7 7 5 4 5 5 5 4 4 4 4 5 6 8 9 8 8 7 6 4 4 4 3 4 5 5 5 5 5 5 6 6 5 6 6 7 8 7 7 7 6 7 8 8 10
2 2 2 2 4 5 6 7 7 6 5 6 5 5 5 4 5 5 6 4 6 7 8 6 5 4 4 4 3 3 3 3 4 4 5 6 5 6 6 6 6 6 7 7 7 8 8 8 7 7 7 7 8 8
3 2 3 3 5 6 7 4 5 5 6 5 6 5 6 7 7 6 4 7 7 5 5 5 4 4 4 4 3 3 2 3 3 5 6 6 6 6 6 6 6 7 7 7 7 8 8 7 7 7 7 7 8 8
2 3 4 5 7 8 8 3 7 6 8 7 6 7 7 7 6 4 7 6 5 4 4 4 3 3 4 3 3 4 3 3 4 5 5 5 5 6 6 6 6 7 7 7 6 7 8 10 8 7 7 7 8 8
3 4 6 6 6 8 6 7 6 7 7 7 8 9 8 7 5 6 8 6 5 4 4 4 3 4 3 4 5 5 4 3 4 5 5 6 6 6 6 6 6 6 6 6 7 7 7 7 8 8 8 8 8 9
8 7 7 9 7 8 9 9 8 8 9 8 8 8 8 6 9 8 9 8 6 5 4 4 4 4 5 4 4 4 3 4 5 6 5 5 6 6 7 7 7 7 6 7 7 7 7 7 7 8 8 8 8 9
10 8 9 8 8 8 8 9 9 8 8 9 8 6 6 8 10 11 10 10 9 7 7 5 4 4 4 4 5 5 4 4 5 7 6 6 6 7 8 8 9 8 7 6 7 7 8 7 7 7 8 8 10 8
10 9 7 5 5 6 7 6 6 7 9 9 8 8 8 11 12 12 10 10 10 8 8 7 4 4 4 4 4 4 4 4 5 6 5 6 6 5 6 8 8 8 7 7 7 7 7 7 8 7 7 7 7 7
7 7 9 7 7 6 9 8 9 9 9 7 8 10 11 11 13 11 10 9 9 9 8 6 4 3 3 4 4 4 5 5 4 5 6 6 5 6 6 7 8 12 8 8 7 6 6 7 7 7 7 7 7 7
8 6 7 9 8 8 8 8 8 8 8 8 9 10 11 11 11 11 10 9 9 9 7 5 3 3 3 4 4 4 5 5 7 8 8 9 8 8 7 7 7 7 8 9 13 11 9 8 7 7 7 7 7 7
8 6 8 9 9 9 9 8 9 8 7 7 8 9 10 11 10 9 10 10 11 11 9 6 4 5 5 6 6 6 5 5 5 6 8 8 8 7 7 7 7 7 7 7 8 9 13 10 10 7 8 8 8 8
6 6 8 8 10 9 9 8 7 8 8 8 8 9 11 11 9 9 10 9 9 10 9 7 5 5 5 6 6 6 7 5 5 5 5 6 6 6 6 7 7 7 7 7 7 8 8 8 8 8 9 9 9 9
7 8 9 10 10 9 8 8 8 9 9 9 10 9 9 10 12 11 10 10 10 11 11 9 8 8 7 6 6 7 9 6 5 5 5 5 6 6 6 7 7 7 7 8 8 8 8 8 8 8 9 10 11 11
7 7 7 9 10 10 8 9 9 10 9 10 10 10 10 11 14 11 9 9 10 10 10 10 9 7 7 7 7 8 9 10 11 12 12 12 12 9 7 7 7 7 8 8 8 8 8 9 9 10 10 10 11 12